Погода в Черлаке

Погода в Черлаке : погода сейчас, прогноз погоды и архив. Всё, что Вы хотите узнать о погоде в Черлаке!

Хотите узнать прогноз погоды в Черлаке? Тогда Вам сюда: Погода в Черлаке

Поиск расширенной информации на нашем сайте:

Другие новости

Новости СМИ2

Главная страница сайта

Новости сайта

02.10.2013

Напоминаем, что на нашем новом сайте вы можете получить высокодетализированные прогнозы погоды по пунктам России, СНГ и мира (включающие важные для авиации метеовеличины, такие как направление и скорость ветра, видимость, явления погоды, количество и форма облачности, нижняя и верхняя граница облачности), а также ознакомиться с разнообразными материалами по авиационной метеорологии и подборкой полезных ссылок на эту тему.

Сайт Метеоцентр.Азия посвящён разработке технологий оптимизации авиаметеорологического обслуживания, включая проектирование и перспективное создание нескольких автоматизированных авиаметеорологических систем:
- система выпуска высокодетальных прогностических карт явлений погоды для нижнего воздушного пространства по России и ближнему зарубежью;
- система верификации прогнозов TAF (выпускаемых синоптиками официальных АМСГ РФ и ближнего зарубежья) и AUTOTAF (выпускаемых сайтом Метеоцентр.Азия) - выявление ошибок, онлайн-сопоставление с фактической погодой METAR, автоматическое внесение коррективов в прогнозы при резком отклонении фактической погоды от прогноза, подсчёт оправдываемости прогнозов по элементам и в целом;
- система обработки, анализа и отображения авиаметеорологической информации для применения провайдерами метеорологической информации.

Рекомендуем: Лечебные камни и минералы магия драгоценных камней магические и лечебные.

Погода в Черлаке - сегодня

Время (UTC), дата Ветер
(°,м/с) 
Видим.   Явления Облачность Т
(°С)
Тd
(°С)
f(%) Тe
(°С)
Pmin
(гПа)
dP
(гПа)
Po
(мм)
O2
(г/м3)
Тmin Tmax R s Состояние
почвы
00 26.05.17 тихо ()   20000 м    ясно 
+4.5 -0.6 69 +5  1022.9  2.5  756  300           
03 26.05.17 290 (З) 20000 м    ясно 
+12.3 -2.8 35 +13  1024.8  2.2  758  293  +1.1        сухая 
06 26.05.17 300 (СЗ) 20000 м    ясно 
+15.2 -2.1 30 +16  1025.6  0.8  759  290           
09 26.05.17 330 (СЗ) 20000 м    ясно 
+17 -2.3 27 +18  1024.9  -0.6  758  288           
12 26.05.17 320 (СЗ) 20000 м    ясно 
+17.9 -3 24 +19  1024.5  -0.3  758  287           
15 26.05.17 100 (В) 20000 м    ясно 
+14.1 +0.3 39 +15  1024.3  -0.4  758  290    +18.9       
18 26.05.17 130 (ЮВ) 10 км    ясно 
+10.8 +0.2 48 +11  1024.2  -0.2  758  294           
21 26.05.17 150 (ЮВ) 10 км    ясно 
+7 +1.9 70 +7  1023.9  -0.5  757  297           
00 27.05.17 140 (ЮВ) 20000 м    ясно 
+8.4 +3 69 +8  1023.6  -0.2  757  296           
03 27.05.17 170 (Ю) 20000 м    ясно 
+15.8 +0.7 36 +16  1022.2  -1  756  288  +5.6        сухая 
18 27.05.17 140 (ЮВ) 10 км    10/5 600 м кучево-дожд., средняя, верхняя 
[Cb cap|Ac trans|Cs]
+18.6 +0.9 30 +19  1009.3  -2.2  747  282           
21 27.05.17 130 (ЮВ) 10 км    10/10 600 м кучево-дожд. 
[Cb cap]
+18.2 -0.4 28 +19  1006.3  -2.9  745  281           
00 28.05.17 120 (ЮВ) 20000 м  в посл. час ливневой дождь  10/10 600 м кучево-дожд. 
[Cb cap]
+15.8 +5.1 49 +17  1004.5  -1.9  743  282           
03 28.05.17 150 (ЮВ) 20000 м  {ливн. осадки}  3/1 600 м средняя 
[Cu hum|Ac lent]
+19.3 +6.7 44 +20  1002  -2.3  742  278  +14.7    0.3     
12 28.05.17 230 (ЮЗ) 6-12{14}  20000 м    6/6 600 м 
[Cu hum]
+24 +7.9 36 +24  999.1  0.4  740  273           
15 28.05.17 240 (ЮЗ) 5-12{12}  20000 м    6/6 600 м кучево-дожд. 
[Cb cap]
+20.2 +9.8 51 +21  1000.3  740  276    +26.8       
21 28.05.17 210 (ЮЗ) 10 км    ясно 
+14.7 +11.6 82 +19  1003.1  1.2  742  282           
00 29.05.17 230 (ЮЗ) 20000 м    ясно 
+14.3 +10.6 78 +16  1003.8  0.7  743  282           
03 29.05.17 200 (Ю) 20000 м    10/0 верхняя 
[Ci fib]
+19.5 +11.8 61 +25  1003.6  743  277  +13.7         
06 29.05.17 230 (ЮЗ) 20000 м    10/5 600 м верхняя 
[Cu hum|Ci fib]
+25.2 +10.8 40 +28  1002.3  -1  742  272           
15 29.05.17 090 (В) 20000 м  в посл. час ливневой дождь{гроза}  8/5 600 м кучево-дожд., средняя 
[Cb cap|Ac cuf]
+16.5 +13.8 84 +24  998.3  -1.7  739  278    +26.1     
18 29.05.17 090 (В) 10 км  {гроза, ливн. осадки}  10/6 600 м кучево-дожд., средняя 
[Cb cap|Ac As]
+15.2 +12.7 85 +22  996.3  -2  737  279           
21 29.05.17 210 (ЮЗ) 10 км    8/8 600 м кучево-дожд. 
[Cb cap]
+14.3 +12.8 91 +22  994.8  -1.6  736  279           
00 30.05.17 040 (СВ) 20000 м    9/8 600 м кучево-дожд., средняя 
[Cb cap|Ac trans]
+13.4 +12.8 96 +21  993.4  -1.3  735  280           
03 30.05.17 190 (Ю) 10 км  слаб. ливневой дождь  10/10 600 м кучево-дожд. 
[Cb cap]
+14.2 +13.4 95 +20  994.6  1.2  736  279  +12.9       
Время (UTC), дата Ветер
(°,м/с) 
Видим.   Явления Облачность Т
(°С)
Тd
(°С)
f(%) Тe
(°С)
Pmin
(гПа)
dP
(гПа)
Po
(мм)
O2
(г/м3)
Тmin Tmax R s Состояние
почвы

Для получения пояснительной информации подведите курсор к названию столбца.

ПОГОДА в Черлаке - архив

Всё, что Вы хотите узнать о погоде в Черлаке - удобно и подробно!

Выберите нужную дату (начиная с 1 января 2015* года) и нажмите кнопку "Найти".
Будут отображены архивные сводки погоды по пункту Черлак, начиная с указанной даты.


Отображать данные в формате CSV (для использования в таблицах Excel)


Внимание! Наш архив погоды предназначен исключительно для личного некоммерческого использования в познавательных целях. Если Вам необходимы официальные справки о состоянии погоды (для производственных, юридических, коммерческих и т.п. целей), обращайтесь в органы Росгидромета.

*Примечание: данная дата относится к архиву по метеостанциям СССР (Россия, СНГ, Балтия).
Архив по метеостанциям Зарубежной Европы и Азии (кроме Китая) хранится 10 дней, по другим регионам земного шара (Китай, Африка, Америка, Австралия, Океания) - 1 день.

Черлак - район местоположения метеостанции


Название, широта, долгота, высота метеостанции:
Черлак 54.2°ш. 74.8°д. 115 м над ур. моря [Российская Федерация]

Дополнительная информация

В oтличие oт бoльшинства пoгoдных сайтoв мы публикуем пoдрoбную метеoинфoрмацию в детальнoм прoфессиoнальнoм фoрмате.

Характеристики температуры и влажнoсти вoздуха измеряются на высoте 2 м в тени вдали oт зданий и деревьев.
Скoрoсть ветра измеряется на высoте 10 м (на урoвне рoста челoвека скoрoсть ветра ниже в 1.5-2 раза). Если метеoстанция нахoдится в гoрoде или в лесу, тo скoрoсть ветра занижена на 2-4 м/с пo сравнению с oткрытым местoм. Скoрoсть ветра над акватoриями крупных рек и oзёр, а также на вершинах хoлмoв на 2-5 м/с выше, чем в oбычных услoвиях.
Атмoсфернoе давление в разных тoчках местнoсти мoжет значительнo oтличаться oт давления на метеoстанции, в зависимoсти oт услoвий рельефа (при пoдъёме на 10 м давление пoнижается примернo на 1 мм рт.ст.).